Volver al catálogo

SL-19 DEB

ActivoSSO
NORAD 36038·DEBRIS·🇷🇺 Russia

Lanzado Nov 2, 2009 desde Plesetsk Cosmodrome

Loading…

Próximos Pases (próximas 24 horas)

TLE

ActualizadoSource: Space-Track

Época: Sep 14, 2026, 11:03 UTC

1 36038U 09059C   26257.46076238  .00000493  00000-0  11146-3 0  9993
2 36038  98.1855  79.9644 0008401 290.0808  98.3294 14.60413546896098

Sigue SL-19 DEB en tiempo real con AllMySat

Download on the App Store